Location: ????????
(56.0167°N, 38.0333°E)
Time: 09:38:27
(UTC+00:00)

SPOT 3 Rocket - Pass Details

Date: 19 May 2025
Orbit: 774 x 790 km, 98.5° (Epoch: 16 December)

Event Time Altitude Azimuth Distance (km) Brightness Sun altitude
Exits shadow 18:29:03 - 157° (SSE) 2,747 5.8 -5.5°
Reaches altitude 10° 18:30:06 10° 157° (SSE) 2,323 5.4 -5.6°
Maximum altitude 18:35:14 81° 72° (ENE) 793 3.6 -6.1°
Drops below altitude 10° 18:40:23 10° 345° (NNW) 2,337 7.3 -6.5°
Sets 18:42:43 0° 345° (NNW) 3,269 8.2 -6.7°
